Simultaneous Nadir Overpasses (SNOs) Predictions

Prediction of SNOs between GOES-14 and AQUA Satellite Orbit:

Table of predicted SNOs for the next 14.0 days since TLE Epoch: 10/9/2021
Index Date Time (GOES-14) GOES-14 Lat,Lon AQUA Lat,Lon Distance(km) Time Diff (sec)
1 10/09/2021 20:20:30 -0.29,-104.22 0.40,-100.95 371.35 80
2 10/10/2021 08:41:46 0.27,-104.27 0.68,-106.11 209.60 80
3 10/12/2021 08:26:55 0.27,-104.27 0.01,-103.16 126.33 80
4 10/12/2021 20:48:18 -0.25,-104.19 -1.17,-108.34 472.88 80
5 10/14/2021 08:14:43 0.27,-104.27 -0.60,-100.20 462.44 80
6 10/14/2021 20:36:07 -0.25,-104.19 -0.49,-105.39 135.91 80
7 10/16/2021 20:26:35 -0.25,-104.20 0.14,-102.43 201.43 80
8 10/17/2021 08:47:51 0.22,-104.31 0.94,-107.59 373.86 80
9 10/19/2021 08:35:39 0.23,-104.31 0.31,-104.63 36.36 80
10 10/21/2021 08:20:47 0.23,-104.32 -0.33,-101.67 301.30 80
11 10/21/2021 20:42:10 -0.21,-104.20 -0.75,-106.86 302.09 80
